When you browse on this site, cookies collect data to enhance your experience and personalize the content and advertising you see.
Visit our Privacy Policy to learn more. By continuing to use the site, you agree to this use of cookies and data.
  • In Latvia
  • List of Countries
  • For 7 days
  • Water Temperature
  • Satellite Maps
  • Weather Map
  • Weather Widgets
  • user-avatar
    Login

    Hourly Weather Langenthal

    Today, 18 July, Thursday

    Time Temperature Precipitation Wind Pressure Humidity
    00:00 +16°C° 0 mm 1 mps 716 mmHg 72%
    01:00 +16°C° 0 mm 1 mps 716 mmHg 70%
    02:00 +16°C° 0 mm 1 mps 715 mmHg 72%
    03:00 +16°C° 0 mm 1 mps 715 mmHg 75%
    04:00 +15°C° 0 mm 1 mps 715 mmHg 77%
    05:00 +16°C° 0 mm 1 mps 715 mmHg 76%
    06:00 +18°C° 0 mm 1 mps 715 mmHg 74%
    07:00 +19°C° 0 mm 1 mps 716 mmHg 70%
    08:00 +22°C° 0 mm 1 mps 716 mmHg 60%
    09:00 +24°C° 0 mm 2 mps 717 mmHg 51%
    10:00 +26°C° 0 mm 2 mps 717 mmHg 42%
    11:00 +26°C° 0 mm 2 mps 717 mmHg 41%
    12:00 +27°C° 0 mm 2 mps 717 mmHg 40%
    13:00 +27°C° 0 mm 2 mps 717 mmHg 40%
    14:00 +26°C° 0 mm 2 mps 717 mmHg 45%
    15:00 +26°C° 0 mm 1 mps 717 mmHg 49%
    16:00 +25°C° 0 mm 1 mps 717 mmHg 54%
    17:00 +24°C° 0 mm 1 mps 717 mmHg 59%
    18:00 +24°C° 0 mm 1 mps 717 mmHg 64%
    19:00 +21°C° 0 mm 0 mps 717 mmHg 69%
    20:00 +19°C° 0.1 mm 0 mps 717 mmHg 72%
    21:00 +20°C° 0.1 mm 1 mps 717 mmHg 76%
    22:00 +18°C° 0.1 mm 1 mps 718 mmHg 79%
    23:00 +18°C° 0 mm 1 mps 718 mmHg 81%

    Tomorrow, 19 July, Friday

    Time Temperature Precipitation Wind Pressure Humidity
    00:00 +16°C° 0 mm 1 mps 718 mmHg 83%
    01:00 +16°C° 0 mm 1 mps 718 mmHg 85%
    02:00 +16°C° 0 mm 1 mps 717 mmHg 87%
    03:00 +15°C° 0 mm 1 mps 717 mmHg 89%
    04:00 +15°C° 0 mm 1 mps 717 mmHg 90%
    05:00 +15°C° 0 mm 0 mps 718 mmHg 87%
    06:00 +16°C° 0 mm 0 mps 718 mmHg 85%
    07:00 +17°C° 0 mm 0 mps 718 mmHg 82%
    08:00 +19°C° 0 mm 0 mps 718 mmHg 74%
    09:00 +21°C° 0 mm 0 mps 719 mmHg 65%
    10:00 +26°C° 0 mm 1 mps 719 mmHg 57%
    11:00 +27°C° 0 mm 1 mps 719 mmHg 53%
    12:00 +28°C° 0 mm 1 mps 719 mmHg 49%
    13:00 +28°C° 0 mm 1 mps 718 mmHg 45%
    14:00 +28°C° 0 mm 2 mps 718 mmHg 46%
    15:00 +28°C° 0 mm 2 mps 718 mmHg 46%
    16:00 +28°C° 0 mm 2 mps 718 mmHg 46%
    17:00 +27°C° 0 mm 2 mps 718 mmHg 55%
    18:00 +26°C° 0 mm 1 mps 718 mmHg 63%
    19:00 +24°C° 0 mm 1 mps 718 mmHg 71%
    20:00 +22°C° 0 mm 1 mps 718 mmHg 76%
    21:00 +21°C° 0 mm 1 mps 718 mmHg 82%
    22:00 +17°C° 0 mm 0 mps 718 mmHg 87%
    23:00 +16°C° 0 mm 0 mps 718 mmHg 88%

    Day after tomorrow, 20 July, Saturday

    Time Temperature Precipitation Wind Pressure Humidity
    00:00 +16°C° 0 mm 0 mps 718 mmHg 89%
    01:00 +15°C° 0 mm 0 mps 718 mmHg 90%
    02:00 +16°C° 0 mm 1 mps 718 mmHg 90%
    03:00 +16°C° 0 mm 1 mps 718 mmHg 91%
    04:00 +16°C° 0 mm 1 mps 718 mmHg 91%
    05:00 +18°C° 0 mm 1 mps 718 mmHg 87%
    06:00 +19°C° 0 mm 1 mps 718 mmHg 84%
    07:00 +20°C° 0 mm 1 mps 718 mmHg 80%
    08:00 +22°C° 0 mm 1 mps 718 mmHg 71%
    09:00 +25°C° 0 mm 1 mps 719 mmHg 62%
    10:00 +27°C° 0 mm 1 mps 719 mmHg 54%
    11:00 +28°C° 0 mm 2 mps 719 mmHg 48%
    12:00 +30°C° 0 mm 4 mps 719 mmHg 43%
    13:00 +32°C° 0 mm 5 mps 719 mmHg 37%
    14:00 +32°C° 0 mm 4 mps 719 mmHg 37%
    15:00 +32°C° 0 mm 4 mps 719 mmHg 37%
    16:00 +32°C° 0 mm 4 mps 719 mmHg 36%
    17:00 +30°C° 0 mm 3 mps 719 mmHg 46%
    18:00 +28°C° 0 mm 2 mps 719 mmHg 55%
    19:00 +26°C° 0 mm 1 mps 719 mmHg 64%
    20:00 +25°C° 0 mm 1 mps 719 mmHg 67%
    21:00 +23°C° 0 mm 1 mps 720 mmHg 69%
    22:00 +22°C° 0 mm 1 mps 720 mmHg 72%
    23:00 +21°C° 0.3 mm 1 mps 720 mmHg 77%

    21 July, Sunday

    Time Temperature Precipitation Wind Pressure Humidity
    00:00 +20°C° 0.3 mm 1 mps 720 mmHg 82%
    01:00 +19°C° 0.3 mm 1 mps 720 mmHg 87%
    02:00 +19°C° 0.5 mm 1 mps 720 mmHg 89%
    03:00 +18°C° 0.5 mm 1 mps 720 mmHg 91%
    04:00 +18°C° 0.5 mm 1 mps 720 mmHg 93%
    05:00 +19°C° 0.2 mm 1 mps 721 mmHg 93%
    06:00 +20°C° 0.2 mm 1 mps 721 mmHg 92%
    07:00 +20°C° 0.2 mm 1 mps 721 mmHg 91%
    08:00 +23°C° 0 mm 1 mps 722 mmHg 81%
    09:00 +25°C° 0 mm 1 mps 722 mmHg 71%
    10:00 +27°C° 0 mm 1 mps 723 mmHg 61%
    11:00 +28°C° 0 mm 2 mps 723 mmHg 56%
    12:00 +30°C° 0 mm 2 mps 723 mmHg 51%
    13:00 +31°C° 0 mm 2 mps 723 mmHg 46%
    14:00 +31°C° 0 mm 3 mps 723 mmHg 46%
    15:00 +31°C° 0 mm 3 mps 723 mmHg 46%
    16:00 +31°C° 0 mm 3 mps 723 mmHg 46%
    17:00 +30°C° 0 mm 2 mps 723 mmHg 54%
    18:00 +28°C° 0 mm 2 mps 723 mmHg 63%
    19:00 +27°C° 0 mm 1 mps 723 mmHg 72%
    20:00 +25°C° 0.1 mm 1 mps 723 mmHg 77%
    21:00 +23°C° 0.1 mm 1 mps 723 mmHg 83%
    22:00 +21°C° 0.1 mm 1 mps 723 mmHg 88%
    23:00 +21°C° 0.2 mm 1 mps 723 mmHg 89%

    22 July, Monday

    Time Temperature Precipitation Wind Pressure Humidity
    00:00 +20°C° 0.2 mm 1 mps 723 mmHg 91%
    01:00 +18°C° 0.2 mm 0 mps 723 mmHg 92%
    02:00 +17°C° 0 mm 0 mps 723 mmHg 92%
    03:00 +17°C° 0 mm 0 mps 723 mmHg 91%
    04:00 +17°C° 0 mm 0 mps 723 mmHg 91%
    05:00 +18°C° 0 mm 0 mps 723 mmHg 90%
    06:00 +19°C° 0 mm 0 mps 723 mmHg 89%
    07:00 +20°C° 0 mm 0 mps 723 mmHg 87%
    08:00 +22°C° 0 mm 0 mps 724 mmHg 78%
    09:00 +25°C° 0 mm 0 mps 724 mmHg 68%
    10:00 +29°C° 0 mm 1 mps 724 mmHg 58%
    11:00 +31°C° 0 mm 1 mps 724 mmHg 53%
    12:00 +32°C° 0 mm 1 mps 724 mmHg 48%
    13:00 +34°C° 0 mm 1 mps 724 mmHg 44%
    14:00 +34°C° 0 mm 1 mps 723 mmHg 42%
    15:00 +34°C° 0 mm 1 mps 723 mmHg 41%
    16:00 +34°C° 0 mm 1 mps 723 mmHg 39%
    17:00 +32°C° 0 mm 1 mps 723 mmHg 49%
    18:00 +30°C° 0 mm 1 mps 723 mmHg 58%
    19:00 +29°C° 0 mm 1 mps 722 mmHg 67%
    20:00 +27°C° 0 mm 1 mps 722 mmHg 73%
    21:00 +25°C° 0 mm 1 mps 722 mmHg 78%
    22:00 +23°C° 0 mm 1 mps 723 mmHg 84%
    23:00 +22°C° 0 mm 1 mps 722 mmHg 86%

    23 July, Tuesday

    Time Temperature Precipitation Wind Pressure Humidity
    00:00 +22°C° 0 mm 1 mps 722 mmHg 88%
    01:00 +21°C° 0 mm 1 mps 722 mmHg 90%
    02:00 +19°C° 0 mm 0 mps 722 mmHg 90%
    03:00 +19°C° 0 mm 0 mps 722 mmHg 90%
    04:00 +18°C° 0 mm 0 mps 721 mmHg 91%
    05:00 +19°C° 0 mm 0 mps 721 mmHg 88%
    06:00 +20°C° 0 mm 0 mps 721 mmHg 86%
    07:00 +21°C° 0 mm 0 mps 721 mmHg 83%
    08:00 +25°C° 0 mm 1 mps 722 mmHg 74%
    09:00 +28°C° 0 mm 1 mps 722 mmHg 65%
    10:00 +30°C° 0 mm 1 mps 722 mmHg 56%
    11:00 +32°C° 0 mm 1 mps 722 mmHg 49%
    12:00 +33°C° 0 mm 1 mps 721 mmHg 43%
    13:00 +36°C° 0 mm 2 mps 721 mmHg 37%
    14:00 +36°C° 0 mm 2 mps 721 mmHg 36%
    15:00 +36°C° 0 mm 2 mps 721 mmHg 35%
    16:00 +36°C° 0 mm 2 mps 720 mmHg 34%
    17:00 +34°C° 0 mm 2 mps 720 mmHg 44%
    18:00 +31°C° 0 mm 1 mps 720 mmHg 53%
    19:00 +29°C° 0 mm 1 mps 720 mmHg 63%
    20:00 +27°C° 0 mm 1 mps 720 mmHg 69%
    21:00 +26°C° 0 mm 1 mps 720 mmHg 75%
    22:00 +24°C° 0 mm 1 mps 720 mmHg 80%
    23:00 +23°C° 0 mm 1 mps 719 mmHg 83%
    Show more